Total_Precipitation_Accumulation
0.00 0.00 0.00 0.00 0.00 0.00 0.00 0.00 0.00 0.00 0.00 0.00 0.00 0.00 0.00 0.00 0.00 0.00 0.00 0.00 0.00 0.00 0.00 0.00 0.00 0.00 0.00 0.00 0.00 0.00 0.00 0.00 0.00 0.00 0.00 0.00 0.01 0.00 0.00 0.00 0.00 0.00 0.00 0.00 0.00 0.00 0.00 0.00 0.00 0.00 0.00 0.00 0.00 0.00 0.00 0.00 0.00 0.00 0.00 0.00 0.01 0.02 0.01 0.02 0.01 0.01 0.01 0.00 0.00 0.00 0.00 0.08 0.18 0.01 0.00 0.00 0.00 0.00 0.01 0.01 0.00 0.00 0.00 0.00 0.00 0.00 0.00
0.00 0.00 0.00 0.00 0.01 0.00 0.00 0.00 0.00 0.00 0.00 0.00 0.00 0.00 0.00 0.00 0.00 0.00 0.00 0.00 0.00 0.00 0.00 0.00 0.00 0.00 0.00 0.00 0.00 0.00 0.00 0.00 0.00 0.00 0.00 0.00 0.00 0.01 0.01 0.00 0.00 0.00 0.00 0.00 0.00 0.00 0.00 0.00 0.00 0.00 0.00 0.00 0.00 0.00 0.00 0.00 0.00 0.00 0.00 0.00 0.00 0.00 0.01 0.01 0.00 0.04 0.00 0.00 0.00 0.00 0.00 0.00 0.00 0.00 0.00 0.00 0.00 0.00 0.00 0.00 0.00 0.00 0.00 0.00 0.00 0.00 0.00
0.00 0.00 0.00 0.00 0.00 0.00 0.00 0.00 0.00 0.00 0.00 0.00 0.00 0.00 0.00 0.00 0.00 0.00 0.00 0.00 0.00 0.00 0.00 0.00 0.00 0.00 0.00 0.00 0.00 0.00 0.00 0.00 0.00 0.00 0.00 0.00 0.00 0.00 0.00 0.00 0.00 0.00 0.00 0.00 0.00 0.00 0.00 0.00 0.00 0.00 0.00 0.00 0.00 0.00 0.00 0.00 0.00 0.00 0.00 0.00 0.00 0.00 0.00 0.00 0.01 0.00 0.00 0.00 0.00 0.00 0.00 0.00 0.00 0.00 0.00 0.00 0.00 0.00 0.00 0.00 0.00 0.00 0.00 0.00 0.01 0.01 0.00
0.00 0.00 0.00 0.00 0.00 0.00 0.00 0.00 0.00 0.00 0.00 0.00 0.00 0.00 0.00 0.00 0.00 0.00 0.00 0.00 0.00 0.00 0.00 0.00 0.00 0.00 0.00 0.00 0.00 0.00 0.00 0.00 0.00 0.00 0.00 0.00 0.00 0.00 0.00 0.00 0.00 0.00 0.00 0.00 0.00 0.00 0.00 0.00 0.00 0.00 0.00 0.00 0.00 0.00 0.00 0.00 0.00 0.00 0.00 0.00 0.01 0.02 0.01 0.00 0.00 0.00 0.00 0.00 0.00 0.00 0.00 0.00 0.00 0.00 0.00 0.00 0.00 0.00 0.00 0.00 0.00 0.00 0.01 0.03 0.02 0.00 0.01
0.00 0.00 0.00 0.01 0.00 0.01 0.02 0.00 0.00 0.00 0.00 0.00 0.00 0.00 0.00 0.00 0.00 0.00 0.00 0.00 0.00 0.00 0.00 0.00 0.00 0.00 0.00 0.00 0.00 0.00 0.00 0.00 0.00 0.00 0.00 0.00 0.00 0.00 0.00 0.00 0.00 0.00 0.00 0.00 0.00 0.00 0.00 0.00 0.00 0.00 0.00 0.00 0.00 0.00 0.00 0.00 0.00 0.00 0.00 0.00 0.00 0.00 0.01 0.00 0.00 0.00 0.00 0.00 0.00 0.00 0.00 0.00 0.00 0.00 0.00 0.00 0.00 0.00 0.00 0.00 0.00 0.00 0.00 0.00 0.00 0.00 0.00
0.00 0.00 0.00 0.01 0.03 0.03 0.00 0.00 0.00 0.00 0.00 0.00 0.00 0.00 0.00 0.00 0.00 0.00 0.00 0.00 0.00 0.00 0.00 0.00 0.00 0.00 0.00 0.00 0.00 0.00 0.00 0.00 0.00 0.00 0.00 0.00 0.00 0.00 0.00 0.00 0.00 0.00 0.00 0.00 0.00 0.00 0.00 0.00 0.00 0.00 0.00 0.00 0.00 0.00 0.00 0.00 0.00 0.00 0.00 0.00 0.00 0.00 0.00 0.00 0.00 0.00 0.00 0.00 0.00 0.00 0.00 0.00 0.00 0.00 0.00 0.00 0.00 0.00 0.00 0.00 0.00 0.00 0.00 0.00 0.00 0.00 0.00
0.00 0.00 0.00 0.02 0.10 0.00 0.00 0.00 0.00 0.00 0.00 0.00 0.00 0.00 0.00 0.00 0.00 0.00 0.00 0.00 0.00 0.00 0.00 0.00 0.00 0.00 0.00 0.00 0.00 0.00 0.00 0.00 0.00 0.00 0.00 0.00 0.00 0.00 0.00 0.00 0.00 0.00 0.00 0.00 0.00 0.00 0.00 0.00 0.00 0.00 0.00 0.00 0.00 0.00 0.00 0.00 0.00 0.00 0.00 0.00 0.00 0.00 0.00 0.00 0.00 0.00 0.00 0.00 0.00 0.00 0.00 0.00 0.00 0.00 0.00 0.00 0.00 0.00 0.00 0.00 0.00 0.00 0.01 0.03 0.00 0.00 0.00
0.00 0.02 0.15 0.05 0.00 0.00 0.00 0.00 0.00 0.00 0.00 0.00 0.00 0.00 0.00 0.00 0.00 0.00 0.00 0.00 0.00 0.00 0.00 0.00 0.00 0.00 0.00 0.00 0.00 0.00 0.00 0.00 0.00 0.00 0.00 0.00 0.00 0.00 0.00 0.00 0.00 0.00 0.00 0.00 0.00 0.00 0.00 0.00 0.00 0.00 0.00 0.00 0.00 0.00 0.00 0.00 0.00 0.00 0.00 0.00 0.00 0.00 0.00 0.00 0.00 0.00 0.00 0.00 0.00 0.00 0.00 0.00 0.00 0.00 0.00 0.00 0.00 0.00 0.00 0.00 0.12 0.31 0.00 0.00 0.00 0.02 0.00
0.01 0.00 0.00 0.00 0.00 0.00 0.00 0.00 0.00 0.01 0.01 0.01 0.00 0.04 0.00 0.00 0.00 0.00 0.00 0.00 0.00 0.00 0.00 0.00 0.00 0.00 0.00 0.00 0.00 0.00 0.00 0.00 0.00 0.00 0.00 0.00 0.00 0.00 0.00 0.00 0.00 0.00 0.00 0.00 0.00 0.00 0.00 0.00 0.00 0.00 0.00 0.00 0.00 0.00 0.00 0.00 0.00 0.00 0.00 0.00 0.00 0.00 0.00 0.00 0.00 0.00 0.00 0.00 0.00 0.00 0.00 0.00 0.00 0.00 0.00 0.00 0.00 0.00 0.02 0.16 0.04 0.03 0.00 0.00 0.00 0.00 0.00
0.00 0.01 0.01 0.02 0.08 0.00 0.00 0.00 0.01 0.00 0.00 0.00 0.00 0.00 0.00 0.00 0.00 0.00 0.00 0.00 0.00 0.00 0.00 0.00 0.00 0.00 0.00 0.00 0.00 0.00 0.00 0.00 0.00 0.00 0.00 0.00 0.00 0.00 0.00 0.00 0.00 0.00 0.00 0.00 0.00 0.00 0.00 0.00 0.00 0.00 0.00 0.00 0.00 0.00 0.00 0.00 0.00 0.00 0.00 0.00 0.00 0.00 0.00 0.00 0.00 0.00 0.00 0.00 0.00 0.00 0.00 0.00 0.00 0.00 0.00 0.00 0.00 0.01 0.01 0.01 0.01 0.00 0.01 0.02 0.01 0.00 0.01
0.02 0.00 0.03 0.03 0.02 0.00 0.09 0.01 0.00 0.00 0.00 0.00 0.00 0.00 0.01 0.00 0.00 0.00 0.00 0.00 0.00 0.00 0.00 0.00 0.00 0.00 0.00 0.00 0.00 0.00 0.00 0.00 0.00 0.00 0.00 0.00 0.00 0.00 0.00 0.00 0.00 0.00 0.00 0.00 0.00 0.00 0.00 0.00 0.00 0.00 0.00 0.00 0.00 0.00 0.00 0.00 0.00 0.00 0.00 0.00 0.00 0.00 0.00 0.00 0.00 0.00 0.00 0.00 0.00 0.00 0.00 0.00 0.00 0.00 0.00 0.00 0.00 0.00 0.00 0.00 0.00 0.00 0.01 0.01 0.01 0.01 0.02
0.02 0.01 0.02 0.01 0.03 0.04 0.05 0.01 0.02 0.01 0.00 0.00 0.00 0.07 0.03 0.00 0.00 0.00 0.00 0.00 0.00 0.00 0.00 0.00 0.00 0.00 0.01 0.00 0.00 0.00 0.00 0.00 0.00 0.00 0.00 0.00 0.00 0.00 0.00 0.00 0.00 0.00 0.00 0.00 0.00 0.00 0.00 0.00 0.00 0.00 0.00 0.00 0.00 0.00 0.00 0.00 0.00 0.00 0.00 0.00 0.00 0.00 0.00 0.00 0.00 0.00 0.00 0.00 0.00 0.00 0.00 0.00 0.00 0.00 0.00 0.00 0.00 0.00 0.00 0.00 0.00 0.02 0.03 0.01 0.01 0.01 0.02
0.13 0.01 0.02 0.01 0.01 0.02 0.00 0.01 0.00 0.00 0.00 0.00 0.06 0.00 0.11 0.01 0.00 0.01 0.01 0.01 0.00 0.01 0.01 0.00 0.00 0.00 0.00 0.00 0.00 0.00 0.00 0.00 0.00 0.00 0.00 0.00 0.00 0.00 0.00 0.00 0.00 0.00 0.00 0.00 0.00 0.00 0.00 0.00 0.00 0.00 0.00 0.00 0.00 0.00 0.00 0.00 0.00 0.00 0.00 0.00 0.00 0.00 0.00 0.00 0.00 0.00 0.00 0.00 0.00 0.00 0.00 0.00 0.00 0.00 0.00 0.00 0.00 0.00 0.00 0.00 0.01 0.00 0.01 0.01 0.00 0.00 0.00
0.36 0.16 0.09 0.05 0.03 0.08 0.03 0.01 0.00 0.00 0.00 0.03 0.12 0.25 0.00 0.02 0.04 0.00 0.01 0.01 0.00 0.00 0.01 0.00 0.00 0.00 0.00 0.00 0.00 0.00 0.00 0.00 0.00 0.00 0.00 0.00 0.00 0.00 0.00 0.00 0.00 0.00 0.00 0.00 0.00 0.00 0.00 0.00 0.00 0.00 0.00 0.00 0.00 0.00 0.00 0.01 0.01 0.00 0.00 0.00 0.00 0.00 0.00 0.00 0.00 0.00 0.00 0.00 0.00 0.00 0.00 0.00 0.00 0.00 0.00 0.00 0.00 0.00 0.00 0.02 0.04 0.02 0.02 0.01 0.00 0.00 0.00
0.27 0.30 0.22 0.10 0.14 0.33 0.01 0.05 0.04 0.01 0.03 0.11 0.06 0.01 0.04 0.02 0.01 0.03 0.01 0.01 0.00 0.00 0.01 0.01 0.01 0.00 0.00 0.00 0.00 0.00 0.00 0.01 0.00 0.01 0.01 0.00 0.01 0.00 0.00 0.00 0.00 0.00 0.00 0.00 0.00 0.00 0.00 0.00 0.00 0.00 0.00 0.00 0.00 0.00 0.00 0.01 0.05 0.03 0.00 0.00 0.00 0.00 0.00 0.00 0.00 0.00 0.00 0.00 0.00 0.01 0.00 0.00 0.02 0.02 0.00 0.01 0.01 0.02 0.01 0.02 0.01 0.01 0.01 0.01 0.00 0.00 0.27
0.23 0.26 0.34 0.36 0.05 0.10 0.04 0.08 0.29 0.13 0.10 0.04 0.04 0.06 0.06 0.04 0.02 0.07 0.13 0.03 0.02 0.00 0.00 0.02 0.03 0.01 0.00 0.00 0.00 0.01 0.02 0.01 0.02 0.01 0.01 0.01 0.01 0.00 0.00 0.01 0.03 0.00 0.00 0.00 0.00 0.00 0.00 0.00 0.00 0.00 0.01 0.00 0.00 0.01 0.01 0.01 0.00 0.01 0.00 0.00 0.00 0.00 0.00 0.00 0.00 0.00 0.00 0.01 0.00 0.00 0.00 0.00 0.01 0.01 0.02 0.00 0.00 0.03 0.07 0.22 0.57 0.67 0.69 0.76 0.71 0.54 0.01
0.23 0.22 0.25 0.43 0.10 0.25 0.15 0.10 0.07 0.06 0.05 0.04 0.03 0.03 0.05 0.08 0.08 0.02 0.06 0.03 0.01 0.01 0.01 0.02 0.03 0.04 0.05 0.06 0.04 0.03 0.05 0.04 0.02 0.03 0.04 0.02 0.01 0.01 0.01 0.01 0.04 0.02 0.01 0.01 0.00 0.00 0.00 0.00 0.00 0.00 0.01 0.02 0.03 0.01 0.04 0.00 0.00 0.00 0.00 0.00 0.00 0.01 0.01 0.00 0.00 0.00 0.00 0.00 0.01 0.03 0.02 0.01 0.01 0.01 0.00 0.16 0.38 0.50 0.63 0.55 0.35 0.10 0.13 0.24 0.28 0.19 0.21
0.15 0.19 0.29 0.48 0.41 0.21 0.55 0.15 0.40 0.39 0.14 0.10 0.05 0.05 0.06 0.04 0.05 0.03 0.07 0.20 0.10 0.05 0.03 0.03 0.05 0.13 0.09 0.11 0.04 0.08 0.07 0.09 0.27 0.23 0.15 0.15 0.24 0.24 0.19 0.06 0.12 0.12 0.10 0.05 0.09 0.17 0.22 0.26 0.21 0.21 0.16 0.17 0.15 0.23 0.22 0.19 0.07 0.23 0.33 0.66 0.81 1.03 0.81 0.76 0.58 0.31 0.15 0.13 0.22 0.35 0.41 0.52 0.66 0.74 0.77 0.76 0.66 0.52 0.34 0.43 0.39 0.40 0.38 0.14 0.19 0.24 0.17
0.14 0.28 0.26 0.67 0.57 0.38 0.26 0.53 0.55 0.77 0.84 0.79 0.26 0.28 0.35 0.15 0.14 0.15 0.06 0.15 0.17 0.38 0.49 0.14 0.17 0.35 0.40 0.24 0.20 0.06 0.05 0.31 0.22 0.06 0.10 0.20 0.30 0.32 0.29 0.27 0.10 0.15 0.36 0.31 0.40 0.38 0.49 0.44 0.48 0.61 0.88 0.96 0.93 0.76 0.62 0.75 0.92 1.38 1.66 1.58 1.53 1.54 1.37 1.40 1.41 1.09 0.99 1.00 0.94 0.77 0.65 0.61 0.59 0.45 0.38 0.52 0.40 0.46 0.39 0.35 0.28 0.19 0.15 0.21 0.18 0.17 0.22
0.20 0.42 0.48 0.54 0.65 0.66 0.65 0.55 0.75 0.80 0.67 0.95 0.79 0.56 0.26 0.30 0.49 0.29 0.24 0.33 0.52 0.38 0.19 0.38 0.25 0.19 0.30 0.42 0.51 0.44 0.52 0.45 0.36 0.24 0.21 0.30 0.33 0.43 0.51 0.66 0.63 0.57 0.61 0.61 0.63 0.52 0.91 0.94 0.91 0.91 1.44 1.24 1.40 1.60 1.62 1.17 0.84 0.43 0.53 0.48 0.50 0.35 0.36 0.43 0.40 0.37 0.33 0.24 0.35 0.44 0.50 0.37 0.35 0.18 0.12 0.15 0.19 0.12 0.05 0.04 0.12 0.16 0.10 0.08 0.10 0.16 0.17
0.66 0.58 0.73 0.65 0.51 0.43 0.85 0.41 0.57 0.72 0.71 0.76 1.09 0.48 0.36 0.27 0.25 0.16 0.27 0.27 0.42 0.49 0.12 0.01 0.09 0.01 0.03 0.16 0.28 0.41 0.15 0.18 0.18 0.18 0.07 0.16 0.19 0.18 0.15 0.34 0.41 0.28 0.20 0.33 0.25 0.14 0.09 0.32 0.82 1.01 1.38 1.69 1.69 1.43 1.76 1.79 1.58 1.50 1.37 0.94 0.73 0.40 0.28 0.23 0.08 0.10 0.19 0.42 0.40 0.33 0.33 0.21 0.10 0.17 0.06 0.03 0.02 0.08 0.05 0.04 0.08 0.13 0.33 0.37 0.43 0.55 0.64
0.54 0.55 0.69 0.49 0.60 0.67 0.55 0.65 0.54 0.72 0.92 0.69 0.95 0.97 0.63 0.25 0.35 0.32 0.24 0.12 0.10 0.15 0.28 0.51 0.53 0.41 0.49 0.45 0.34 0.53 0.31 0.52 0.56 0.32 0.35 0.28 0.37 0.30 0.19 0.20 0.29 0.23 0.55 0.44 0.43 0.50 0.71 0.96 0.95 1.23 1.10 0.99 0.85 1.03 0.84 0.64 0.75 0.89 0.98 1.06 0.97 1.03 0.67 0.63 0.68 0.69 0.49 0.38 0.23 0.23 0.24 0.09 0.12 0.16 0.07 0.09 0.06 0.13 0.20 0.12 0.22 0.33 0.35 0.63 0.62 0.54 0.56
0.42 0.52 0.80 0.70 0.67 0.57 0.42 0.48 0.38 0.32 0.47 0.45 0.71 0.92 0.83 0.63 0.21 0.18 0.18 0.28 0.34 0.29 0.16 0.15 0.15 0.11 0.07 0.15 0.09 0.15 0.37 0.26 0.28 0.37 0.35 0.10 0.12 0.33 0.26 0.39 0.48 0.64 0.62 0.38 0.36 0.41 0.30 0.11 0.17 0.51 1.01 0.68 0.46 0.28 0.23 0.50 0.64 0.55 0.45 0.63 0.67 0.87 1.56 1.46 1.22 1.14 0.92 0.87 1.06 1.03 1.10 1.10 0.56 0.42 0.30 0.32 0.24 0.31 0.17 0.21 0.11 0.05 0.08 0.04 0.23 0.34 0.65
0.54 0.42 0.55 0.65 0.61 0.73 0.60 0.44 0.28 0.42 0.53 0.61 0.49 0.77 0.67 0.62 0.40 0.32 0.24 0.31 0.30 0.14 0.16 0.08 0.13 0.07 0.06 0.05 0.04 0.05 0.05 0.07 0.21 0.37 0.11 0.05 0.06 0.09 0.16 0.56 0.55 0.86 0.79 0.25 0.26 0.29 0.60 0.40 0.11 0.07 0.05 0.08 0.03 0.02 0.07 0.09 0.06 0.12 0.16 0.18 0.28 0.24 0.28 0.40 0.59 0.67 0.89 1.25 1.53 1.52 1.32 1.46 1.28 1.10 1.16 0.89 0.67 0.60 0.67 0.86 0.81 0.65 0.61 0.83 0.77 0.90 0.80
0.67 0.41 0.31 0.54 0.48 0.37 0.50 0.56 0.43 0.45 0.43 0.36 0.37 0.57 0.70 0.71 0.69 0.41 0.25 0.19 0.15 0.21 0.16 0.06 0.16 0.07 0.11 0.13 0.07 0.03 0.04 0.06 0.05 0.05 0.22 0.16 0.14 0.11 0.10 0.12 0.15 0.16 0.15 0.62 0.58 0.51 0.49 0.20 0.17 0.21 0.05 0.06 0.06 0.09 0.07 0.07 0.09 0.05 0.05 0.06 0.07 0.09 0.15 0.11 0.09 0.09 0.32 0.29 0.57 0.51 0.80 1.13 0.88 0.74 0.60 0.88 1.18 1.48 1.64 1.45 1.49 1.32 1.47 1.46 1.29 0.96 0.73
0.92 0.76 0.69 0.48 0.32 0.32 0.47 0.50 0.53 0.41 0.21 0.30 0.31 0.42 0.35 0.49 0.46 0.47 0.37 0.27 0.21 0.15 0.12 0.10 0.11 0.13 0.10 0.05 0.04 0.02 0.03 0.04 0.05 0.06 0.05 0.06 0.07 0.08 0.22 0.37 0.13 0.15 0.25 0.70 0.32 0.57 0.81 0.53 0.21 0.15 0.08 0.07 0.06 0.06 0.05 0.06 0.08 0.11 0.15 0.13 0.11 0.11 0.16 0.16 0.12 0.14 0.11 0.23 0.29 0.36 0.39 0.51 0.40 0.23 0.20 0.40 1.14 0.84 0.48 0.70 1.34 1.54 1.45 1.18 1.04 1.02 1.48
0.74 0.88 0.47 0.60 0.37 0.41 0.37 0.35 0.52 0.46 0.55 0.30 0.24 0.35 0.35 0.39 0.46 0.45 0.36 0.23 0.16 0.19 0.12 0.13 0.08 0.06 0.05 0.06 0.05 0.01 0.01 0.02 0.02 0.02 0.02 0.02 0.02 0.03 0.04 0.07 0.22 0.35 0.18 0.42 0.56 0.58 0.86 1.35 1.02 0.30 0.17 0.25 0.16 0.08 0.08 0.08 0.09 0.13 0.10 0.16 0.32 0.69 0.93 1.62 1.68 1.35 1.41 1.12 0.49 0.54 0.45 0.81 0.77 0.79 0.94 1.13 0.74 0.71 0.59 0.59 0.46 0.43 0.69 0.95 1.08 1.50 1.46
0.67 0.85 0.83 0.93 0.46 0.27 0.32 0.32 0.38 0.29 0.34 0.34 0.33 0.37 0.49 0.26 0.19 0.20 0.30 0.27 0.30 0.21 0.16 0.15 0.05 0.18 0.16 0.08 0.05 0.07 0.03 0.01 0.02 0.01 0.01 0.01 0.02 0.01 0.01 0.02 0.09 0.27 0.12 0.19 0.41 0.52 0.54 0.54 0.61 0.63 0.27 0.40 0.39 0.25 0.16 0.08 0.07 0.09 0.08 0.12 0.15 0.31 0.29 0.65 0.98 0.72 0.39 0.77 1.29 1.06 0.68 0.73 1.07 1.48 0.99 0.90 0.90 0.82 1.09 1.07 0.76 0.88 0.77 0.91 1.34 1.97 1.31
0.75 0.60 0.55 0.70 0.84 0.43 0.56 0.55 0.32 0.30 0.33 0.52 0.50 0.43 0.31 0.40 0.29 0.27 0.23 0.19 0.16 0.19 0.11 0.10 0.04 0.04 0.11 0.05 0.12 0.03 0.02 0.05 0.03 0.02 0.02 0.02 0.01 0.01 0.01 0.01 0.01 0.08 0.37 0.13 0.28 0.37 0.57 0.36 0.26 0.41 0.26 0.40 0.49 0.79 0.93 0.48 0.51 0.24 0.40 0.56 0.66 0.31 0.37 0.42 0.47 0.74 0.58 0.42 0.41 0.80 0.59 0.52 0.56 0.73 0.75 1.01 1.41 1.49 1.30 1.33 1.45 1.21 0.89 0.69 0.58 0.76 1.19
1.10 0.98 0.61 0.56 0.67 0.82 0.50 0.39 0.21 0.19 0.26 0.22 0.41 0.45 0.42 0.34 0.25 0.20 0.14 0.09 0.22 0.23 0.12 0.16 0.05 0.08 0.04 0.04 0.12 0.15 0.06 0.01 0.06 0.03 0.01 0.01 0.02 0.01 0.01 0.01 0.01 0.01 0.04 0.05 0.23 0.50 0.59 0.28 0.24 0.31 0.31 0.20 0.37 0.53 0.74 0.67 0.73 0.96 0.77 0.70 0.43 0.37 0.34 0.43 0.49 0.47 0.30 0.41 0.45 0.48 0.97 0.80 0.47 0.40 0.58 0.69 1.11 1.55 1.38 0.91 1.02 1.33 1.44 1.60 1.33 1.18 1.21
1.39 1.25 0.81 0.51 0.46 0.71 0.65 0.40 0.42 0.29 0.21 0.27 0.18 0.34 0.49 0.35 0.32 0.24 0.16 0.15 0.12 0.08 0.08 0.09 0.16 0.07 0.06 0.06 0.05 0.04 0.19 0.24 0.05 0.02 0.02 0.03 0.02 0.02 0.01 0.01 0.01 0.02 0.01 0.04 0.04 0.11 0.26 0.29 0.33 0.20 0.14 0.20 0.17 0.18 0.32 0.50 0.52 0.56 0.76 0.93 0.99 0.43 0.40 0.31 0.41 0.59 0.64 0.41 0.26 0.42 0.56 0.99 1.36 1.65 1.52 1.33 1.27 1.10 1.54 1.93 2.02 1.56 1.22 0.90 0.93 1.45 1.54
1.09 1.32 1.01 0.62 0.51 0.67 0.71 0.58 0.43 0.36 0.26 0.26 0.30 0.31 0.27 0.43 0.39 0.27 0.31 0.21 0.17 0.13 0.11 0.07 0.08 0.08 0.07 0.07 0.12 0.07 0.03 0.02 0.20 0.19 0.07 0.08 0.04 0.04 0.02 0.02 0.02 0.02 0.02 0.07 0.13 0.31 0.35 0.30 0.10 0.08 0.08 0.16 0.30 0.36 0.31 0.58 1.03 0.86 0.88 0.94 1.00 0.54 0.52 0.54 0.38 0.50 0.75 0.82 0.69 0.38 0.51 0.86 1.38 1.38 1.29 0.75 0.44 0.51 0.80 0.82 0.76 1.18 2.57 2.03 1.37 1.25 1.07
0.83 1.06 1.16 0.81 0.66 0.59 0.56 0.63 0.51 0.47 0.44 0.28 0.26 0.28 0.22 0.18 0.23 0.26 0.24 0.21 0.21 0.18 0.08 0.10 0.10 0.06 0.07 0.06 0.05 0.06 0.04 0.03 0.01 0.08 0.06 0.05 0.05 0.03 0.02 0.03 0.03 0.02 0.05 0.02 0.01 0.09 0.12 0.36 0.23 0.03 0.09 0.22 0.06 0.11 0.13 0.77 0.68 0.81 1.06 1.01 0.68 0.82 0.73 0.96 0.94 0.89 0.94 0.82 0.89 0.89 0.70 0.73 0.52 0.69 0.44 0.23 0.25 0.52 0.50 0.30 0.26 0.26 0.27 0.61 0.72 0.86 0.70
0.84 0.98 1.05 0.84 0.55 0.67 0.46 0.43 0.38 0.39 0.38 0.37 0.18 0.16 0.13 0.16 0.16 0.17 0.17 0.14 0.16 0.08 0.09 0.04 0.04 0.07 0.05 0.05 0.08 0.08 0.07 0.03 0.05 0.04 0.02 0.17 0.19 0.13 0.04 0.05 0.03 0.04 0.02 0.02 0.01 0.02 0.05 0.10 0.18 0.42 0.19 0.15 0.42 0.10 0.07 0.17 0.37 0.77 0.33 0.39 0.57 0.88 0.72 0.83 1.01 0.96 1.03 1.03 1.11 0.94 0.72 0.46 0.46 0.33 0.44 0.22 0.14 0.15 0.16 0.16 0.15 0.16 0.20 0.16 0.26 0.27 0.23
0.71 0.93 0.95 1.22 0.76 0.75 0.54 0.50 0.30 0.29 0.33 0.21 0.21 0.21 0.26 0.17 0.08 0.04 0.07 0.09 0.09 0.11 0.09 0.06 0.04 0.02 0.03 0.04 0.07 0.05 0.03 0.03 0.06 0.05 0.07 0.12 0.06 0.07 0.11 0.09 0.05 0.02 0.03 0.06 0.08 0.35 0.17 0.15 0.27 0.24 0.07 0.09 0.03 0.03 0.04 0.04 0.05 0.17 0.59 0.98 1.30 1.60 1.40 1.26 0.66 0.60 0.66 0.61 0.55 0.37 0.32 0.24 0.27 0.25 0.36 0.35 0.16 0.10 0.09 0.11 0.40 0.16 0.18 0.13 0.13 0.11 0.17
0.70 0.91 0.78 0.69 0.96 0.85 0.80 0.77 0.51 0.48 0.37 0.30 0.35 0.23 0.35 0.23 0.09 0.08 0.10 0.08 0.08 0.08 0.08 0.08 0.07 0.05 0.02 0.02 0.06 0.06 0.05 0.06 0.04 0.04 0.06 0.04 0.05 0.08 0.06 0.02 0.06 0.09 0.03 0.03 0.03 0.05 0.05 0.22 0.35 0.27 0.23 0.18 0.05 0.06 0.01 0.03 0.05 0.06 0.73 0.94 1.21 0.88 0.87 0.72 0.84 0.77 0.83 0.98 0.87 0.42 0.31 0.41 0.41 0.51 0.34 0.16 0.36 0.55 0.25 0.28 0.39 0.37 0.42 0.46 0.23 0.15 0.05
0.88 0.80 0.58 0.56 0.68 0.98 0.69 0.50 0.79 0.76 0.46 0.45 0.40 0.40 0.35 0.27 0.30 0.20 0.13 0.21 0.24 0.13 0.18 0.22 0.09 0.04 0.03 0.04 0.02 0.02 0.05 0.06 0.08 0.06 0.05 0.04 0.04 0.05 0.03 0.02 0.03 0.03 0.03 0.06 0.05 0.06 0.04 0.05 0.24 0.22 0.22 0.21 0.12 0.09 0.07 0.03 0.01 0.03 0.10 0.35 0.49 0.92 1.34 1.89 1.22 0.64 0.63 0.40 0.34 0.32 0.26 0.32 0.35 0.31 0.19 0.08 0.07 0.09 0.10 0.17 0.20 0.06 0.06 0.27 0.54 0.22 0.06
1.09 0.79 0.71 0.61 0.56 0.49 0.49 0.56 0.61 0.66 0.53 0.44 0.66 0.63 0.92 0.79 0.68 0.46 0.49 0.46 0.47 0.47 0.39 0.16 0.07 0.04 0.04 0.04 0.02 0.01 0.02 0.02 0.05 0.04 0.03 0.03 0.04 0.06 0.03 0.02 0.03 0.03 0.01 0.03 0.01 0.01 0.02 0.01 0.01 0.23 0.14 0.14 0.11 0.06 0.06 0.02 0.03 0.04 0.03 0.08 0.10 0.16 0.20 0.21 0.40 0.50 0.22 0.26 0.23 0.24 0.30 0.37 0.17 0.24 0.26 0.22 0.17 0.06 0.05 0.04 0.12 0.28 0.17 0.13 0.26 0.43 0.22
1.39 1.59 1.14 1.24 0.95 0.91 0.72 0.84 0.98 0.84 0.52 0.56 1.14 0.90 0.84 0.80 0.70 0.72 0.65 0.52 0.48 0.42 0.30 0.25 0.22 0.08 0.03 0.02 0.03 0.02 0.01 0.03 0.02 0.04 0.02 0.04 0.03 0.06 0.04 0.04 0.06 0.03 0.02 0.03 0.07 0.04 0.03 0.01 0.03 0.03 0.11 0.07 0.04 0.03 0.05 0.06 0.02 0.03 0.01 0.00 0.01 0.00 0.02 0.07 0.27 0.82 1.24 1.05 0.70 0.33 0.30 0.37 0.72 0.25 0.37 0.26 0.13 0.23 0.26 0.25 0.23 0.28 0.27 1.14 0.69 0.56 0.68
1.46 1.34 1.49 1.29 1.12 1.08 1.16 1.33 1.37 1.50 1.43 1.31 1.17 1.50 1.18 0.92 0.78 0.67 0.38 0.44 0.46 0.31 0.30 0.24 0.18 0.14 0.07 0.03 0.02 0.03 0.02 0.02 0.03 0.02 0.04 0.03 0.02 0.04 0.07 0.03 0.01 0.01 0.00 0.00 0.03 0.02 0.00 0.00 0.01 0.06 0.06 0.07 0.12 0.40 0.28 0.11 0.21 0.09 0.03 0.01 0.00 0.00 0.00 0.01 0.01 0.01 0.15 0.22 0.29 0.38 0.45 0.75 0.62 0.40 0.57 0.58 0.33 0.26 0.37 0.31 0.20 0.17 0.11 0.14 0.26 0.54 0.42
2.24 2.25 1.98 1.71 1.49 1.31 1.18 0.91 1.01 1.10 1.07 1.18 1.36 1.43 1.03 0.98 0.84 0.71 0.58 0.54 0.55 0.49 0.32 0.37 0.30 0.18 0.08 0.05 0.06 0.03 0.03 0.04 0.05 0.02 0.01 0.01 0.03 0.04 0.01 0.02 0.01 0.02 0.02 0.04 0.00 0.00 0.00 0.00 0.01 0.03 0.01 0.01 0.01 0.03 0.32 0.37 0.63 0.26 0.19 0.73 0.11 0.01 0.00 0.00 0.02 0.03 0.02 0.10 0.44 0.15 0.12 0.21 0.60 1.14 0.59 0.55 0.33 0.28 0.22 0.32 0.36 0.33 0.12 0.09 0.10 0.16 0.12
2.11 1.80 1.76 1.64 1.61 1.66 1.73 1.46 1.09 1.16 1.21 1.50 1.65 1.23 1.16 1.10 0.86 0.71 0.56 0.49 0.48 0.35 0.26 0.19 0.11 0.08 0.05 0.03 0.02 0.01 0.01 0.03 0.02 0.03 0.06 0.05 0.03 0.04 0.02 0.01 0.01 0.03 0.01 0.02 0.01 0.01 0.00 0.01 0.01 0.01 0.00 0.00 0.00 0.00 0.00 0.03 0.11 0.10 0.17 0.27 0.44 0.42 0.42 0.17 0.15 0.33 0.03 0.03 0.11 0.57 0.52 0.86 0.51 0.51 0.47 0.57 0.58 0.40 0.27 0.42 0.53 0.64 0.41 0.37 0.16 0.25 0.22
1.91 1.82 1.71 1.64 1.60 1.43 1.28 1.13 1.32 1.36 1.40 1.31 1.22 1.21 1.17 0.93 0.71 0.65 0.61 0.45 0.36 0.23 0.22 0.20 0.12 0.06 0.03 0.02 0.02 0.02 0.01 0.01 0.01 0.01 0.01 0.01 0.02 0.01 0.04 0.01 0.00 0.00 0.02 0.02 0.03 0.03 0.01 0.02 0.00 0.00 0.00 0.00 0.00 0.00 0.00 0.01 0.01 0.00 0.03 0.42 0.38 0.38 0.62 0.51 0.74 0.69 1.07 0.71 0.66 0.41 0.14 0.07 0.12 0.24 0.70 0.91 0.82 1.16 0.94 0.89 0.87 0.49 0.60 0.60 0.66 0.64 0.49
1.18 1.28 1.27 1.33 1.13 1.28 1.18 1.18 1.20 1.15 1.05 1.05 0.90 0.84 0.78 0.62 0.54 0.49 0.37 0.41 0.28 0.27 0.17 0.14 0.10 0.06 0.04 0.03 0.03 0.03 0.01 0.01 0.02 0.01 0.02 0.01 0.00 0.01 0.01 0.00 0.01 0.01 0.02 0.01 0.02 0.02 0.01 0.00 0.00 0.00 0.00 0.00 0.00 0.00 0.00 0.00 0.00 0.00 0.00 0.00 0.00 0.02 0.04 0.08 0.13 0.20 0.24 0.34 0.40 0.37 0.25 0.45 0.42 0.26 0.33 0.56 0.52 0.46 1.03 0.92 0.82 0.70 1.01 1.17 0.51 0.52 0.55
0.55 0.62 0.73 0.81 0.82 0.80 0.86 0.80 0.79 0.61 0.59 0.55 0.52 0.39 0.34 0.39 0.35 0.35 0.34 0.27 0.22 0.15 0.10 0.06 0.04 0.01 0.01 0.00 0.00 0.00 0.00 0.00 0.00 0.01 0.03 0.03 0.02 0.00 0.00 0.00 0.00 0.00 0.00 0.01 0.02 0.04 0.01 0.00 0.00 0.00 0.00 0.00 0.00 0.00 0.00 0.00 0.00 0.00 0.00 0.00 0.00 0.00 0.00 0.00 0.01 0.03 0.07 0.10 0.17 0.19 0.23 0.20 0.19 0.23 0.31 0.31 0.39 0.42 0.46 0.61 0.73 0.48 0.49 0.55 0.53 0.55 0.43
0.33 0.29 0.31 0.37 0.36 0.42 0.45 0.40 0.34 0.33 0.24 0.21 0.24 0.25 0.26 0.14 0.11 0.11 0.11 0.10 0.08 0.05 0.03 0.02 0.01 0.01 0.00 0.00 0.00 0.00 0.00 0.00 0.00 0.00 0.00 0.01 0.01 0.00 0.00 0.00 0.00 0.00 0.00 0.00 0.00 0.04 0.01 0.00 0.00 0.00 0.00 0.00 0.00 0.00 0.00 0.00 0.00 0.00 0.00 0.00 0.00 0.00 0.00 0.00 0.00 0.00 0.00 0.00 0.01 0.04 0.07 0.12 0.15 0.16 0.19 0.21 0.22 0.25 0.32 0.28 0.37 0.40 0.39 0.33 0.39 0.51 0.35
0.14 0.14 0.17 0.21 0.22 0.50 0.20 0.18 0.15 0.15 0.16 0.15 0.11 0.09 0.06 0.05 0.05 0.05 0.03 0.02 0.02 0.01 0.01 0.00 0.00 0.00 0.00 0.00 0.00 0.00 0.00 0.00 0.00 0.00 0.00 0.00 0.00 0.01 0.00 0.00 0.00 0.00 0.00 0.00 0.01 0.01 0.01 0.00 0.00 0.00 0.00 0.00 0.00 0.00 0.00 0.00 0.00 0.00 0.00 0.00 0.00 0.00 0.00 0.00 0.00 0.00 0.00 0.00 0.00 0.00 0.00 0.00 0.01 0.02 0.05 0.09 0.15 0.22 0.28 0.32 0.48 0.58 0.58 0.57 0.50 0.56 0.86
0.09 0.10 0.11 0.10 0.12 0.11 0.08 0.07 0.07 0.06 0.07 0.07 0.05 0.05 0.03 0.01 0.01 0.01 0.01 0.01 0.00 0.00 0.00 0.00 0.00 0.00 0.00 0.00 0.00 0.00 0.00 0.00 0.00 0.00 0.00 0.00 0.00 0.00 0.00 0.00 0.00 0.00 0.00 0.00 0.00 0.00 0.00 0.00 0.00 0.00 0.00 0.00 0.00 0.00 0.00 0.00 0.00 0.00 0.00 0.00 0.00 0.00 0.00 0.00 0.00 0.00 0.00 0.00 0.00 0.00 0.00 0.00 0.00 0.00 0.00 0.00 0.02 0.04 0.07 0.10 0.15 0.19 0.24 0.30 0.35 0.41 0.53
0.04 0.04 0.04 0.03 0.03 0.03 0.04 0.05 0.04 0.04 0.04 0.02 0.02 0.01 0.01 0.00 0.00 0.00 0.00 0.00 0.00 0.00 0.00 0.00 0.00 0.00 0.00 0.00 0.00 0.00 0.00 0.00 0.00 0.00 0.00 0.00 0.00 0.00 0.00 0.00 0.00 0.00 0.00 0.00 0.00 0.01 0.00 0.00 0.00 0.00 0.00 0.00 0.00 0.00 0.00 0.00 0.00 0.00 0.00 0.00 0.00 0.00 0.00 0.00 0.00 0.00 0.00 0.00 0.00 0.00 0.00 0.00 0.00 0.00 0.00 0.00 0.00 0.00 0.00 0.01 0.05 0.09 0.11 0.12 0.13 0.13 0.13
0.03 0.01 0.01 0.00 0.00 0.01 0.02 0.02 0.02 0.02 0.02 0.01 0.01 0.00 0.00 0.00 0.00 0.00 0.00 0.00 0.00 0.00 0.00 0.00 0.00 0.00 0.00 0.00 0.00 0.00 0.00 0.00 0.00 0.00 0.00 0.00 0.00 0.00 0.00 0.00 0.00 0.00 0.00 0.00 0.00 0.00 0.00 0.00 0.00 0.00 0.00 0.00 0.01 0.00 0.00 0.00 0.00 0.00 0.00 0.00 0.00 0.00 0.00 0.00 0.00 0.00 0.00 0.00 0.00 0.00 0.00 0.00 0.00 0.00 0.00 0.00 0.00 0.00 0.00 0.00 0.00 0.00 0.01 0.04 0.07 0.09 0.09
0.06 0.07 0.02 0.01 0.00 0.00 0.00 0.00 0.00 0.00 0.00 0.00 0.00 0.00 0.00 0.00 0.00 0.00 0.00 0.00 0.00 0.00 0.00 0.00 0.00 0.00 0.00 0.00 0.00 0.00 0.00 0.00 0.00 0.00 0.00 0.00 0.00 0.00 0.00 0.00 0.00 0.00 0.00 0.00 0.00 0.00 0.00 0.00 0.01 0.00 0.00 0.00 0.01 0.00 0.00 0.00 0.00 0.00 0.00 0.00 0.00 0.00 0.00 0.00 0.00 0.00 0.00 0.00 0.00 0.00 0.00 0.00 0.00 0.00 0.00 0.00 0.00 0.00 0.00 0.00 0.00 0.00 0.00 0.00 0.00 0.00 0.01
0.05 0.03 0.01 0.02 0.01 0.00 0.00 0.00 0.01 0.00 0.00 0.00 0.00 0.00 0.00 0.00 0.00 0.00 0.00 0.00 0.00 0.00 0.00 0.00 0.00 0.00 0.00 0.00 0.00 0.00 0.00 0.00 0.00 0.00 0.00 0.00 0.00 0.00 0.00 0.00 0.00 0.00 0.00 0.00 0.00 0.00 0.00 0.00 0.00 0.00 0.00 0.01 0.00 0.00 0.00 0.00 0.00 0.00 0.00 0.00 0.00 0.00 0.00 0.00 0.00 0.00 0.00 0.00 0.00 0.00 0.00 0.00 0.00 0.00 0.00 0.00 0.00 0.00 0.00 0.00 0.00 0.00 0.00 0.00 0.00 0.00 0.00